Time,TemperatureF,DewpointF,PressureIn,WindDirection,WindDirectionDegrees,WindSpeedMPH,WindSpeedGustMPH,Humidity,HourlyPrecipIn,Conditions,Clouds,dailyrainin,SoftwareType,DateUTC
2013-05-06 00:00:00,65.5,29.7,30.01,ENE,61,2.0,2.0,26,0.00,CLR,OVC,0.00,WeatherDisplay:10.37,2013-05-06 04:00:00,
2013-05-06 00:05:00,65.2,29.4,30.01,NE,44,0.0,4.0,26,0.00,CLR,OVC,0.00,WeatherDisplay:10.37,2013-05-06 04:05:00,
2013-05-06 00:10:00,65.1,29.3,30.01,NNE,33,1.0,3.0,26,0.00,CLR,OVC,0.00,WeatherDisplay:10.37,2013-05-06 04:10:00,
2013-05-06 00:15:00,65.0,30.2,30.01,NNE,23,0.0,1.0,27,0.00,CLR,OVC,0.00,WeatherDisplay:10.37,2013-05-06 04:15:00,
2013-05-06 00:20:00,64.8,30.0,30.01,NNE,16,1.0,2.0,27,0.00,CLR,OVC,0.00,WeatherDisplay:10.37,2013-05-06 04:20:00,
2013-05-06 00:25:00,64.7,30.0,30.01,North,3,0.0,1.0,27,0.00,CLR,OVC,0.00,WeatherDisplay:10.37,2013-05-06 04:25:00,
2013-05-06 00:30:00,64.6,29.8,30.01,North,3,0.0,0.0,27,0.00,CLR,OVC,0.00,WeatherDisplay:10.37,2013-05-06 04:30:00,
2013-05-06 00:35:00,64.4,30.5,30.01,NNE,19,0.0,3.0,28,0.00,CLR,OVC,0.00,WeatherDisplay:10.37,2013-05-06 04:35:00,
2013-05-06 00:40:00,64.2,30.4,30.01,NE,38,2.0,5.0,28,0.00,CLR,OVC,0.00,WeatherDisplay:10.37,2013-05-06 04:40:00,
2013-05-06 00:50:00,64.1,30.3,30.01,NNE,24,0.0,2.0,28,0.00,CLR,OVC,0.00,WeatherDisplay:10.37,2013-05-06 04:50:00,
2013-05-06 01:00:00,63.8,31.8,30.01,NNE,13,0.0,1.0,30,0.00,CLR,OVC,0.00,WeatherDisplay:10.37,2013-05-06 05:00:00,
2013-05-06 01:05:00,63.8,31.7,30.01,NNE,25,0.0,3.0,30,0.00,CLR,OVC,0.00,WeatherDisplay:10.37,2013-05-06 05:05:00,
2013-05-06 01:10:00,63.7,31.7,30.01,NNE,23,0.0,3.0,30,0.00,CLR,OVC,0.00,WeatherDisplay:10.37,2013-05-06 05:10:00,
2013-05-06 01:15:00,63.7,31.6,30.01,NNE,16,0.0,0.0,30,0.00,CLR,OVC,0.00,WeatherDisplay:10.37,2013-05-06 05:15:00,
2013-05-06 01:20:00,63.6,31.5,30.01,North,1,0.0,0.0,30,0.00,CLR,OVC,0.00,WeatherDisplay:10.37,2013-05-06 05:20:00,
2013-05-06 01:30:00,63.3,31.3,30.01,North,7,0.0,1.0,30,0.00,CLR,OVC,0.00,WeatherDisplay:10.37,2013-05-06 05:30:00,
2013-05-06 01:40:00,63.1,32.0,30.01,NNE,12,0.0,0.0,31,0.00,CLR,OVC,0.00,WeatherDisplay:10.37,2013-05-06 05:40:00,
2013-05-06 01:50:00,63.0,31.9,30.01,North,5,0.0,3.0,31,0.00,CLR,OVC,0.00,WeatherDisplay:10.37,2013-05-06 05:50:00,
2013-05-06 01:55:00,63.0,31.9,30.01,NNE,30,1.0,3.0,31,0.00,CLR,OVC,0.00,WeatherDisplay:10.37,2013-05-06 05:55:00,
2013-05-06 02:00:00,63.0,32.7,30.01,NNE,18,0.0,0.0,32,0.00,CLR,OVC,0.00,WeatherDisplay:10.37,2013-05-06 06:00:00,
2013-05-06 02:05:00,63.0,32.7,30.01,NNE,24,0.0,3.0,32,0.00,CLR,OVC,0.00,WeatherDisplay:10.37,2013-05-06 06:05:00,
2013-05-06 02:10:00,63.0,32.7,30.01,North,9,0.0,2.0,32,0.00,CLR,OVC,0.00,WeatherDisplay:10.37,2013-05-06 06:10:00,
2013-05-06 02:20:00,62.8,34.0,30.01,North,4,0.0,2.0,34,0.00,CLR,OVC,0.00,WeatherDisplay:10.37,2013-05-06 06:20:00,
2013-05-06 02:25:00,62.6,33.8,30.01,NE,37,1.0,3.0,34,0.00,CLR,OVC,0.00,WeatherDisplay:10.37,2013-05-06 06:25:00,
2013-05-06 02:30:00,62.5,34.5,30.01,NNE,31,0.0,5.0,35,0.00,CLR,OVC,0.00,WeatherDisplay:10.37,2013-05-06 06:30:00,
2013-05-06 02:40:00,62.2,35.6,30.01,NE,37,1.0,3.0,37,0.00,CLR,OVC,0.00,WeatherDisplay:10.37,2013-05-06 06:40:00,
2013-05-06 02:45:00,61.9,36.6,30.01,NNE,25,0.0,4.0,39,0.00,CLR,OVC,0.00,WeatherDisplay:10.37,2013-05-06 06:45:00,
2013-05-06 02:50:00,61.6,36.3,30.01,NE,40,1.0,3.0,39,0.00,CLR,OVC,0.00,WeatherDisplay:10.37,2013-05-06 06:50:00,
2013-05-06 02:55:00,61.3,37.4,30.01,NE,41,0.0,2.0,41,0.00,CLR,OVC,0.00,WeatherDisplay:10.37,2013-05-06 06:55:00,
2013-05-06 03:00:00,61.1,36.5,30.01,NNE,28,0.0,1.0,40,0.00,CLR,OVC,0.00,WeatherDisplay:10.37,2013-05-06 07:00:00,
2013-05-06 03:05:00,60.9,36.4,30.01,NNE,23,0.0,2.0,40,0.00,CLR,OVC,0.00,WeatherDisplay:10.37,2013-05-06 07:05:00,
2013-05-06 03:10:00,60.8,37.0,30.01,NNE,17,0.0,2.0,41,0.00,CLR,OVC,0.00,WeatherDisplay:10.37,2013-05-06 07:10:00,
2013-05-06 03:20:00,60.5,36.1,30.00,North,5,0.0,0.0,40,0.00,CLR,OVC,0.00,WeatherDisplay:10.37,2013-05-06 07:20:00,
2013-05-06 03:25:00,60.4,36.6,30.00,North,3,0.0,0.0,41,0.00,CLR,OVC,0.00,WeatherDisplay:10.37,2013-05-06 07:25:00,
2013-05-06 03:30:00,60.3,36.5,30.00,North,3,0.0,0.0,41,0.00,CLR,OVC,0.00,WeatherDisplay:10.37,2013-05-06 07:30:00,
2013-05-06 03:40:00,60.3,35.8,30.00,NE,45,1.0,2.0,40,0.00,CLR,OVC,0.00,WeatherDisplay:10.37,2013-05-06 07:40:00,
2013-05-06 03:50:00,60.4,35.9,30.00,NE,41,2.0,4.0,40,0.00,CLR,OVC,0.00,WeatherDisplay:10.37,2013-05-06 07:50:00,
2013-05-06 04:00:00,60.5,37.3,30.00,NE,38,0.0,2.0,42,0.00,CLR,OVC,0.00,WeatherDisplay:10.37,2013-05-06 08:00:00,
2013-05-06 04:05:00,60.3,37.1,30.00,NNE,17,0.0,3.0,42,0.00,CLR,OVC,0.00,WeatherDisplay:10.37,2013-05-06 08:05:00,
2013-05-06 04:10:00,60.3,37.1,30.00,NNE,17,0.0,4.0,42,0.00,CLR,OVC,0.00,WeatherDisplay:10.37,2013-05-06 08:10:00,
2013-05-06 04:20:00,60.1,37.5,30.00,NE,38,1.0,5.0,43,0.00,CLR,OVC,0.00,WeatherDisplay:10.37,2013-05-06 08:20:00,
2013-05-06 04:30:00,60.0,38.0,30.00,NE,46,1.0,5.0,44,0.00,CLR,OVC,0.00,WeatherDisplay:10.37,2013-05-06 08:30:00,
2013-05-06 04:40:00,59.9,37.9,30.00,NNE,25,0.0,0.0,44,0.00,CLR,OVC,0.00,WeatherDisplay:10.37,2013-05-06 08:40:00,
2013-05-06 04:50:00,59.7,38.3,30.00,NNE,28,0.0,4.0,45,0.00,CLR,OVC,0.00,WeatherDisplay:10.37,2013-05-06 08:50:00,
2013-05-06 05:00:00,59.6,38.8,30.01,NNE,24,1.0,6.0,46,0.00,CLR,OVC,0.00,WeatherDisplay:10.37,2013-05-06 09:00:00,
2013-05-06 05:05:00,59.5,38.7,30.01,NNE,31,2.0,6.0,46,0.00,CLR,OVC,0.00,WeatherDisplay:10.37,2013-05-06 09:05:00,
2013-05-06 05:10:00,59.4,38.6,30.01,NNE,26,2.0,5.0,46,0.00,CLR,OVC,0.00,WeatherDisplay:10.37,2013-05-06 09:10:00,
2013-05-06 05:20:00,59.4,39.1,30.01,NNE,27,0.0,2.0,47,0.00,CLR,OVC,0.00,WeatherDisplay:10.37,2013-05-06 09:20:00,
2013-05-06 05:30:00,59.1,39.4,30.00,NE,44,1.0,5.0,48,0.00,CLR,OVC,0.00,WeatherDisplay:10.37,2013-05-06 09:30:00,
2013-05-06 05:40:00,58.8,39.7,30.01,NE,46,1.0,8.0,49,0.00,CLR,OVC,0.00,WeatherDisplay:10.37,2013-05-06 09:40:00,
2013-05-06 05:45:00,58.7,39.6,30.01,NNE,27,1.0,6.0,49,0.00,CLR,OVC,0.00,WeatherDisplay:10.37,2013-05-06 09:45:00,
2013-05-06 05:50:00,58.6,40.0,30.01,NNE,27,3.0,7.0,50,0.00,CLR,OVC,0.00,WeatherDisplay:10.37,2013-05-06 09:50:00,
2013-05-06 05:55:00,58.5,39.9,30.01,NE,34,0.0,7.0,50,0.00,CLR,OVC,0.00,WeatherDisplay:10.37,2013-05-06 09:55:00,
2013-05-06 06:05:00,58.5,40.4,30.01,NNE,16,0.0,3.0,51,0.00,CLR,OVC,0.00,WeatherDisplay:10.37,2013-05-06 10:05:00,
2013-05-06 06:10:00,58.5,40.4,30.01,NNE,14,1.0,2.0,51,0.00,CLR,OVC,0.00,WeatherDisplay:10.37,2013-05-06 10:10:00,
2013-05-06 06:20:00,58.3,40.7,30.02,NNE,23,0.0,3.0,52,0.00,CLR,OVC,0.00,WeatherDisplay:10.37,2013-05-06 10:20:00,
2013-05-06 06:25:00,58.2,40.7,30.02,NNE,24,1.0,4.0,52,0.00,CLR,OVC,0.00,WeatherDisplay:10.37,2013-05-06 10:25:00,
2013-05-06 06:30:00,58.2,40.6,30.02,NNE,32,2.0,3.0,52,0.00,CLR,OVC,0.00,WeatherDisplay:10.37,2013-05-06 10:30:00,
2013-05-06 06:40:00,58.1,41.0,30.02,NNE,28,1.0,3.0,53,0.00,CLR,OVC,0.00,WeatherDisplay:10.37,2013-05-06 10:40:00,
2013-05-06 06:50:00,58.0,41.4,30.03,NNE,23,1.0,5.0,54,0.00,CLR,OVC,0.00,WeatherDisplay:10.37,2013-05-06 10:50:00,
2013-05-06 06:55:00,57.9,41.4,30.03,NE,40,2.0,5.0,54,0.00,CLR,OVC,0.00,WeatherDisplay:10.37,2013-05-06 10:55:00,
2013-05-06 07:00:00,57.8,41.3,30.03,NE,46,2.0,5.0,54,0.00,CLR,OVC,0.00,WeatherDisplay:10.37,2013-05-06 11:00:00,
2013-05-06 07:05:00,57.9,41.3,30.04,NE,37,1.0,5.0,54,0.00,CLR,OVC,0.00,WeatherDisplay:10.37,2013-05-06 11:05:00,
2013-05-06 07:10:00,57.9,41.3,30.04,NNE,27,1.0,5.0,54,0.00,CLR,OVC,0.00,WeatherDisplay:10.37,2013-05-06 11:10:00,
2013-05-06 07:20:00,57.8,41.7,30.04,NNE,33,0.0,4.0,55,0.00,CLR,OVC,0.00,WeatherDisplay:10.37,2013-05-06 11:20:00,
2013-05-06 07:25:00,57.6,41.5,30.04,NE,45,2.0,5.0,55,0.00,CLR,OVC,0.00,WeatherDisplay:10.37,2013-05-06 11:25:00,
2013-05-06 07:30:00,57.6,42.0,30.04,NE,42,0.0,5.0,56,0.00,CLR,OVC,0.00,WeatherDisplay:10.37,2013-05-06 11:30:00,
2013-05-06 07:40:00,57.6,42.5,30.05,NNE,29,0.0,0.0,57,0.00,CLR,OVC,0.00,WeatherDisplay:10.37,2013-05-06 11:40:00,
2013-05-06 07:50:00,57.2,43.0,30.05,NE,51,1.0,5.0,59,0.00,CLR,OVC,0.00,WeatherDisplay:10.37,2013-05-06 11:50:00,
2013-05-06 08:00:00,57.1,43.3,30.05,NE,41,1.0,3.0,60,0.00,CLR,OVC,0.00,WeatherDisplay:10.37,2013-05-06 12:00:00,
2013-05-06 08:05:00,56.8,43.1,30.05,NE,35,0.0,3.0,60,0.00,CLR,OVC,0.00,WeatherDisplay:10.37,2013-05-06 12:05:00,
2013-05-06 08:10:00,56.8,43.9,30.05,NE,36,0.0,3.0,62,0.00,CLR,OVC,0.00,WeatherDisplay:10.37,2013-05-06 12:10:00,
2013-05-06 08:15:00,56.6,43.3,30.05,NNE,24,0.0,3.0,61,0.00,CLR,OVC,0.00,WeatherDisplay:10.37,2013-05-06 12:15:00,
2013-05-06 08:20:00,56.6,44.2,30.05,NNE,25,0.0,3.0,63,0.00,CLR,OVC,0.00,WeatherDisplay:10.37,2013-05-06 12:20:00,
2013-05-06 08:30:00,56.3,44.6,30.05,NNE,26,0.0,4.0,65,0.00,CLR,OVC,0.00,WeatherDisplay:10.37,2013-05-06 12:30:00,
2013-05-06 08:40:00,56.1,44.9,30.05,North,8,0.0,0.0,66,0.00,CLR,OVC,0.00,WeatherDisplay:10.37,2013-05-06 12:40:00,
2013-05-06 08:50:00,56.3,44.7,30.05,North,8,0.0,0.0,65,0.00,CLR,OVC,0.00,WeatherDisplay:10.37,2013-05-06 12:50:00,
2013-05-06 09:00:00,56.4,46.0,30.05,North,10,0.0,0.0,68,0.00,CLR,OVC,0.00,WeatherDisplay:10.37,2013-05-06 13:00:00,
2013-05-06 09:05:00,56.2,46.2,30.05,North,9,0.0,0.0,69,0.00,CLR,OVC,0.00,WeatherDisplay:10.37,2013-05-06 13:05:00,
2013-05-06 09:10:00,56.1,46.4,30.05,North,9,0.0,0.0,70,0.00,CLR,OVC,0.00,WeatherDisplay:10.37,2013-05-06 13:10:00,
2013-05-06 09:20:00,55.8,46.5,30.05,North,9,0.0,0.0,71,0.00,CLR,OVC,0.00,WeatherDisplay:10.37,2013-05-06 13:20:00,
2013-05-06 09:25:00,55.9,47.0,30.05,North,9,0.0,0.0,72,0.00,CLR,OVC,0.00,WeatherDisplay:10.37,2013-05-06 13:25:00,
2013-05-06 09:30:00,56.1,47.5,30.05,North,9,0.0,0.0,73,0.00,CLR,OVC,0.00,WeatherDisplay:10.37,2013-05-06 13:30:00,
2013-05-06 09:35:00,56.1,46.8,30.05,North,9,0.0,0.0,71,0.00,CLR,OVC,0.00,WeatherDisplay:10.37,2013-05-06 13:35:00,
2013-05-06 09:40:00,56.3,47.4,30.05,North,9,0.0,0.0,72,0.00,CLR,OVC,0.00,WeatherDisplay:10.37,2013-05-06 13:40:00,
2013-05-06 09:45:00,56.5,47.6,30.05,North,11,0.0,1.0,72,0.00,CLR,OVC,0.00,WeatherDisplay:10.37,2013-05-06 13:45:00,
2013-05-06 09:50:00,56.7,47.0,30.05,NNE,24,1.0,3.0,70,0.00,CLR,OVC,0.00,WeatherDisplay:10.37,2013-05-06 13:50:00,
2013-05-06 10:00:00,57.3,46.1,30.04,NNE,24,0.0,3.0,66,0.00,CLR,OVC,0.00,WeatherDisplay:10.37,2013-05-06 14:00:00,
2013-05-06 10:05:00,57.6,46.3,30.05,NNE,32,1.0,5.0,66,0.00,CLR,OVC,0.00,WeatherDisplay:10.37,2013-05-06 14:05:00,
2013-05-06 10:10:00,58.0,46.3,30.05,NNE,31,0.0,5.0,65,0.00,CLR,OVC,0.00,WeatherDisplay:10.37,2013-05-06 14:10:00,
2013-05-06 10:20:00,58.4,45.9,30.06,NNE,29,1.0,3.0,63,0.00,CLR,OVC,0.00,WeatherDisplay:10.37,2013-05-06 14:20:00,
2013-05-06 10:30:00,58.9,46.8,30.06,NNE,23,1.0,4.0,64,0.00,CLR,OVC,0.00,WeatherDisplay:10.37,2013-05-06 14:30:00,
2013-05-06 10:35:00,58.8,46.3,30.06,NNE,33,1.0,4.0,63,0.00,CLR,OVC,0.00,WeatherDisplay:10.37,2013-05-06 14:35:00,
2013-05-06 10:40:00,58.9,46.8,30.06,NE,36,2.0,5.0,64,0.00,CLR,OVC,0.00,WeatherDisplay:10.37,2013-05-06 14:40:00,
2013-05-06 10:45:00,59.3,47.6,30.06,NNE,29,0.0,2.0,65,0.00,CLR,OVC,0.00,WeatherDisplay:10.37,2013-05-06 14:45:00,
2013-05-06 10:50:00,60.2,48.0,30.06,NNE,15,0.0,6.0,64,0.00,CLR,OVC,0.00,WeatherDisplay:10.37,2013-05-06 14:50:00,
2013-05-06 11:00:00,61.1,47.1,30.06,NNE,28,1.0,5.0,60,0.00,CLR,OVC,0.00,WeatherDisplay:10.37,2013-05-06 15:00:00,
2013-05-06 11:05:00,61.5,47.5,30.06,NNE,22,0.0,4.0,60,0.00,CLR,OVC,0.00,WeatherDisplay:10.37,2013-05-06 15:05:00,
2013-05-06 11:10:00,61.9,47.4,30.06,NNE,20,0.0,5.0,59,0.00,CLR,OVC,0.00,WeatherDisplay:10.37,2013-05-06 15:10:00,
2013-05-06 11:20:00,62.6,48.1,30.06,NNE,27,1.0,6.0,59,0.00,CLR,OVC,0.00,WeatherDisplay:10.37,2013-05-06 15:20:00,
2013-05-06 11:30:00,63.6,48.1,30.06,NNE,20,0.0,6.0,57,0.00,CLR,OVC,0.00,WeatherDisplay:10.37,2013-05-06 15:30:00,
2013-05-06 11:40:00,65.1,47.6,30.05,NNE,24,0.0,5.0,53,0.00,CLR,OVC,0.00,WeatherDisplay:10.37,2013-05-06 15:40:00,
2013-05-06 11:50:00,66.0,47.9,30.06,NE,49,2.0,6.0,52,0.00,CLR,OVC,0.00,WeatherDisplay:10.37,2013-05-06 15:50:00,
2013-05-06 12:00:00,65.8,47.6,30.05,NNE,33,1.0,5.0,52,0.00,CLR,OVC,0.00,WeatherDisplay:10.37,2013-05-06 16:00:00,
2013-05-06 12:05:00,66.3,48.1,30.05,NNE,27,0.0,3.0,52,0.00,CLR,OVC,0.00,WeatherDisplay:10.37,2013-05-06 16:05:00,
2013-05-06 12:10:00,66.7,48.0,30.05,NE,43,2.0,5.0,51,0.00,CLR,OVC,0.00,WeatherDisplay:10.37,2013-05-06 16:10:00,
2013-05-06 12:20:00,66.9,48.1,30.05,NNE,27,0.0,4.0,51,0.00,CLR,OVC,0.00,WeatherDisplay:10.37,2013-05-06 16:20:00,
2013-05-06 12:30:00,67.0,47.8,30.05,NNE,26,3.0,5.0,50,0.00,CLR,OVC,0.00,WeatherDisplay:10.37,2013-05-06 16:30:00,
2013-05-06 12:40:00,67.3,47.5,30.05,NNE,30,1.0,9.0,49,0.00,CLR,OVC,0.00,WeatherDisplay:10.37,2013-05-06 16:40:00,
2013-05-06 12:50:00,68.1,48.2,30.05,NE,52,1.0,9.0,49,0.00,CLR,OVC,0.00,WeatherDisplay:10.37,2013-05-06 16:50:00,
2013-05-06 13:00:00,67.4,47.6,30.04,NNE,30,1.0,8.0,49,0.00,CLR,OVC,0.00,WeatherDisplay:10.37,2013-05-06 17:00:00,
2013-05-06 13:05:00,67.6,48.3,30.04,NE,36,1.0,5.0,50,0.00,CLR,OVC,0.00,WeatherDisplay:10.37,2013-05-06 17:05:00,
2013-05-06 13:10:00,67.6,47.8,30.04,NE,53,2.0,6.0,49,0.00,CLR,OVC,0.00,WeatherDisplay:10.37,2013-05-06 17:10:00,
2013-05-06 13:20:00,66.9,49.2,30.04,ENE,60,1.0,5.0,53,0.00,CLR,OVC,0.00,WeatherDisplay:10.37,2013-05-06 17:20:00,
2013-05-06 13:30:00,66.9,49.2,30.04,ENE,71,1.0,5.0,53,0.00,CLR,OVC,0.00,WeatherDisplay:10.37,2013-05-06 17:30:00,
2013-05-06 13:40:00,65.4,50.7,30.04,East,97,0.0,3.0,59,0.00,CLR,OVC,0.00,WeatherDisplay:10.37,2013-05-06 17:40:00,
2013-05-06 13:50:00,65.0,53.4,30.04,NNE,24,0.0,1.0,66,0.00,CLR,OVC,0.00,WeatherDisplay:10.37,2013-05-06 17:50:00,
2013-05-06 14:00:00,64.7,52.7,30.04,ENE,70,0.0,3.0,65,0.00,CLR,OVC,0.00,WeatherDisplay:10.37,2013-05-06 18:00:00,
2013-05-06 14:05:00,65.0,52.9,30.04,ENE,61,0.0,0.0,65,0.00,CLR,OVC,0.00,WeatherDisplay:10.37,2013-05-06 18:05:00,
2013-05-06 14:10:00,64.9,52.0,30.04,NE,49,0.0,3.0,63,0.00,CLR,OVC,0.00,WeatherDisplay:10.37,2013-05-06 18:10:00,
2013-05-06 14:20:00,65.3,53.2,30.04,NNE,17,0.0,0.0,65,0.01,RA,OVC,0.01,WeatherDisplay:10.37,2013-05-06 18:20:00,
2013-05-06 14:30:00,66.4,53.0,30.03,NNE,17,0.0,1.0,62,0.00,,OVC,0.01,WeatherDisplay:10.37,2013-05-06 18:30:00,
2013-05-06 14:40:00,66.8,52.0,30.03,NNE,33,0.0,0.0,59,0.00,CLR,OVC,0.01,WeatherDisplay:10.37,2013-05-06 18:40:00,
2013-05-06 14:50:00,66.5,54.4,30.03,NNE,17,0.0,1.0,65,0.00,CLR,OVC,0.01,WeatherDisplay:10.37,2013-05-06 18:50:00,
2013-05-06 15:00:00,65.7,52.4,30.03,NNE,15,0.0,0.0,62,0.00,CLR,OVC,0.01,WeatherDisplay:10.37,2013-05-06 19:00:00,
2013-05-06 15:05:00,65.7,52.8,30.03,NNE,15,0.0,0.0,63,0.00,CLR,OVC,0.01,WeatherDisplay:10.37,2013-05-06 19:05:00,
2013-05-06 15:10:00,66.1,52.7,30.03,NNE,15,0.0,0.0,62,0.00,CLR,OVC,0.01,WeatherDisplay:10.37,2013-05-06 19:10:00,
2013-05-06 15:20:00,66.1,53.1,30.02,NNE,15,0.0,0.0,63,0.00,CLR,OVC,0.01,WeatherDisplay:10.37,2013-05-06 19:20:00,
2013-05-06 15:30:00,66.8,53.8,30.02,NE,47,0.0,5.0,63,0.00,CLR,OVC,0.01,WeatherDisplay:10.37,2013-05-06 19:30:00,
2013-05-06 15:40:00,67.4,53.5,30.01,NNE,15,0.0,0.0,61,0.00,CLR,OVC,0.01,WeatherDisplay:10.37,2013-05-06 19:40:00,
2013-05-06 15:50:00,67.1,53.2,30.01,NE,51,1.0,2.0,61,0.00,CLR,OVC,0.01,WeatherDisplay:10.37,2013-05-06 19:50:00,
2013-05-06 16:00:00,67.2,54.6,30.01,NE,39,0.0,2.0,64,0.00,CLR,OVC,0.01,WeatherDisplay:10.37,2013-05-06 20:00:00,
2013-05-06 16:05:00,67.1,54.5,30.00,NNE,26,0.0,2.0,64,0.00,CLR,OVC,0.01,WeatherDisplay:10.37,2013-05-06 20:05:00,
2013-05-06 16:10:00,67.0,53.6,30.01,NNE,21,0.0,1.0,62,0.00,CLR,OVC,0.01,WeatherDisplay:10.37,2013-05-06 20:10:00,
2013-05-06 16:15:00,66.9,53.0,30.01,NNE,17,0.0,3.0,61,0.00,CLR,OVC,0.01,WeatherDisplay:10.37,2013-05-06 20:15:00,
2013-05-06 16:20:00,67.0,53.1,30.00,NNE,28,0.0,2.0,61,0.00,CLR,OVC,0.01,WeatherDisplay:10.37,2013-05-06 20:20:00,
2013-05-06 16:30:00,67.1,53.6,30.00,NNE,27,0.0,0.0,62,0.00,CLR,OVC,0.01,WeatherDisplay:10.37,2013-05-06 20:30:00,
2013-05-06 16:40:00,66.3,53.3,30.00,NNE,16,0.0,0.0,63,0.00,CLR,OVC,0.01,WeatherDisplay:10.37,2013-05-06 20:40:00,
2013-05-06 16:50:00,65.9,52.9,30.00,NNE,22,0.0,1.0,63,0.00,CLR,OVC,0.01,WeatherDisplay:10.37,2013-05-06 20:50:00,
2013-05-06 17:00:00,65.6,53.5,30.00,NNE,17,0.0,0.0,65,0.00,CLR,OVC,0.01,WeatherDisplay:10.37,2013-05-06 21:00:00,
2013-05-06 17:05:00,66.1,53.6,30.00,NNE,17,0.0,0.0,64,0.00,CLR,OVC,0.01,WeatherDisplay:10.37,2013-05-06 21:05:00,
2013-05-06 17:10:00,66.6,54.1,30.00,NNE,17,0.0,0.0,64,0.00,CLR,OVC,0.01,WeatherDisplay:10.37,2013-05-06 21:10:00,
2013-05-06 17:15:00,66.6,54.4,30.00,NNE,17,0.0,2.0,65,0.00,CLR,OVC,0.01,WeatherDisplay:10.37,2013-05-06 21:15:00,
2013-05-06 17:20:00,66.7,54.6,30.01,NNE,18,0.0,1.0,65,0.00,CLR,OVC,0.01,WeatherDisplay:10.37,2013-05-06 21:20:00,
2013-05-06 17:30:00,66.5,54.4,30.00,NNE,20,0.0,2.0,65,0.00,CLR,OVC,0.01,WeatherDisplay:10.37,2013-05-06 21:30:00,
2013-05-06 17:40:00,65.9,55.0,30.00,NE,42,0.0,3.0,68,0.00,CLR,OVC,0.01,WeatherDisplay:10.37,2013-05-06 21:40:00,
2013-05-06 17:45:00,65.6,55.1,30.01,NE,40,0.0,2.0,69,0.00,CLR,OVC,0.01,WeatherDisplay:10.37,2013-05-06 21:45:00,
2013-05-06 17:50:00,65.5,55.4,30.00,NNE,20,0.0,1.0,70,0.00,CLR,OVC,0.01,WeatherDisplay:10.37,2013-05-06 21:50:00,
2013-05-06 18:00:00,65.3,55.6,30.01,NNE,18,0.0,0.0,71,0.00,CLR,OVC,0.01,WeatherDisplay:10.37,2013-05-06 22:00:00,
2013-05-06 18:05:00,64.8,55.2,30.01,NE,55,1.0,5.0,71,0.00,CLR,OVC,0.01,WeatherDisplay:10.37,2013-05-06 22:05:00,
2013-05-06 18:10:00,64.4,55.2,30.01,NE,52,2.0,3.0,72,0.00,CLR,OVC,0.01,WeatherDisplay:10.37,2013-05-06 22:10:00,
2013-05-06 18:20:00,63.6,55.2,30.01,NE,34,0.0,1.0,74,0.00,CLR,OVC,0.01,WeatherDisplay:10.37,2013-05-06 22:20:00,
2013-05-06 18:25:00,63.4,55.4,30.01,NNE,18,0.0,0.0,75,0.00,CLR,OVC,0.01,WeatherDisplay:10.37,2013-05-06 22:25:00,
2013-05-06 18:30:00,63.4,55.7,30.01,NNE,18,0.0,0.0,76,0.00,CLR,OVC,0.01,WeatherDisplay:10.37,2013-05-06 22:30:00,
2013-05-06 18:40:00,63.1,55.8,30.00,NNE,18,0.0,0.0,77,0.00,CLR,OVC,0.01,WeatherDisplay:10.37,2013-05-06 22:40:00,
2013-05-06 18:50:00,63.2,55.9,30.00,NNE,21,0.0,2.0,77,0.00,CLR,OVC,0.01,WeatherDisplay:10.37,2013-05-06 22:50:00,
2013-05-06 19:00:00,63.3,55.3,30.01,NNE,19,0.0,0.0,75,0.00,CLR,OVC,0.01,WeatherDisplay:10.37,2013-05-06 23:00:00,
2013-05-06 19:05:00,63.4,55.3,30.01,NNE,19,0.0,0.0,75,0.00,CLR,OVC,0.01,WeatherDisplay:10.37,2013-05-06 23:05:00,
2013-05-06 19:10:00,63.4,55.4,30.01,NNE,19,0.0,0.0,75,0.00,CLR,OVC,0.01,WeatherDisplay:10.37,2013-05-06 23:10:00,
2013-05-06 19:20:00,63.3,56.0,30.01,NE,34,1.0,2.0,77,0.00,CLR,OVC,0.01,WeatherDisplay:10.37,2013-05-06 23:20:00,
2013-05-06 19:30:00,63.1,56.5,30.01,NNE,24,0.0,3.0,79,0.00,CLR,OVC,0.01,WeatherDisplay:10.37,2013-05-06 23:30:00,
2013-05-06 19:40:00,62.2,56.6,30.02,East,92,1.0,7.0,82,0.00,CLR,OVC,0.01,WeatherDisplay:10.37,2013-05-06 23:40:00,
2013-05-06 19:45:00,61.9,56.7,30.02,East,93,0.0,4.0,83,0.00,CLR,OVC,0.01,WeatherDisplay:10.37,2013-05-06 23:45:00,
2013-05-06 19:50:00,61.5,56.3,30.02,East,94,2.0,7.0,83,0.00,CLR,OVC,0.01,WeatherDisplay:10.37,2013-05-06 23:50:00,
2013-05-06 20:00:00,61.1,56.5,30.02,East,90,2.0,5.0,85,0.00,CLR,OVC,0.01,WeatherDisplay:10.37,2013-05-07 00:00:00,
2013-05-06 20:05:00,61.1,56.6,30.03,ENE,78,0.0,3.0,85,0.00,CLR,OVC,0.01,WeatherDisplay:10.37,2013-05-07 00:05:00,
2013-05-06 20:10:00,61.0,56.5,30.02,NE,55,0.0,3.0,85,0.00,CLR,OVC,0.01,WeatherDisplay:10.37,2013-05-07 00:10:00,
2013-05-06 20:20:00,60.9,56.7,30.02,NNE,21,0.0,3.0,86,0.00,CLR,OVC,0.01,WeatherDisplay:10.37,2013-05-07 00:20:00,
2013-05-06 20:25:00,60.9,56.4,30.02,NNE,21,0.0,0.0,85,0.00,CLR,OVC,0.01,WeatherDisplay:10.37,2013-05-07 00:25:00,
2013-05-06 20:30:00,60.9,56.4,30.03,NNE,20,0.0,0.0,85,0.01,RA,OVC,0.02,WeatherDisplay:10.37,2013-05-07 00:30:00,
2013-05-06 20:40:00,60.6,55.7,30.02,ENE,57,0.0,2.0,84,0.00,,OVC,0.02,WeatherDisplay:10.37,2013-05-07 00:40:00,
2013-05-06 20:50:00,60.6,55.7,30.02,NNE,28,0.0,1.0,84,0.00,CLR,OVC,0.02,WeatherDisplay:10.37,2013-05-07 00:50:00,
2013-05-06 21:00:00,60.4,55.2,30.02,East,88,1.0,3.0,83,0.00,CLR,OVC,0.02,WeatherDisplay:10.37,2013-05-07 01:00:00,
2013-05-06 21:05:00,60.4,54.9,30.02,East,79,0.0,0.0,82,0.00,CLR,OVC,0.02,WeatherDisplay:10.37,2013-05-07 01:05:00,
2013-05-06 21:10:00,60.4,54.9,30.02,NNE,21,0.0,0.0,82,0.00,CLR,OVC,0.02,WeatherDisplay:10.37,2013-05-07 01:10:00,
2013-05-06 21:15:00,60.3,54.8,30.03,NE,37,0.0,4.0,82,0.00,CLR,OVC,0.02,WeatherDisplay:10.37,2013-05-07 01:15:00,
2013-05-06 21:20:00,60.2,54.7,30.03,NE,37,0.0,0.0,82,0.00,CLR,OVC,0.02,WeatherDisplay:10.37,2013-05-07 01:20:00,
2013-05-06 21:25:00,60.1,54.6,30.03,NNE,29,0.0,3.0,82,0.00,CLR,OVC,0.02,WeatherDisplay:10.37,2013-05-07 01:25:00,
2013-05-06 21:30:00,60.0,54.5,30.03,NNE,29,0.0,0.0,82,0.00,CLR,OVC,0.02,WeatherDisplay:10.37,2013-05-07 01:30:00,
2013-05-06 21:40:00,59.9,54.7,30.03,NNE,21,0.0,0.0,83,0.00,CLR,OVC,0.02,WeatherDisplay:10.37,2013-05-07 01:40:00,
2013-05-06 21:50:00,59.7,54.9,30.03,NNE,26,0.0,4.0,84,0.00,CLR,OVC,0.02,WeatherDisplay:10.37,2013-05-07 01:50:00,
2013-05-06 22:00:00,59.6,54.8,30.03,NNE,24,0.0,0.0,84,0.00,CLR,OVC,0.02,WeatherDisplay:10.37,2013-05-07 02:00:00,
2013-05-06 22:05:00,59.6,54.8,30.03,NNE,22,0.0,0.0,84,0.00,CLR,OVC,0.02,WeatherDisplay:10.37,2013-05-07 02:05:00,
2013-05-06 22:10:00,59.5,54.7,30.03,NNE,22,0.0,0.0,84,0.00,CLR,OVC,0.02,WeatherDisplay:10.37,2013-05-07 02:10:00,
2013-05-06 22:20:00,59.2,54.4,30.03,NNE,33,0.0,3.0,84,0.00,CLR,OVC,0.02,WeatherDisplay:10.37,2013-05-07 02:20:00,
2013-05-06 22:30:00,59.3,54.2,30.04,NE,47,0.0,3.0,83,0.00,CLR,OVC,0.02,WeatherDisplay:10.37,2013-05-07 02:30:00,
2013-05-06 22:40:00,59.4,54.2,30.03,NNE,25,0.0,1.0,83,0.00,CLR,OVC,0.02,WeatherDisplay:10.37,2013-05-07 02:40:00,
2013-05-06 22:50:00,59.4,53.9,30.03,NNE,22,0.0,0.0,82,0.00,CLR,OVC,0.02,WeatherDisplay:10.37,2013-05-07 02:50:00,
2013-05-06 23:00:00,59.3,53.5,30.04,NNE,25,0.0,1.0,81,0.00,CLR,OVC,0.02,WeatherDisplay:10.37,2013-05-07 03:00:00,
2013-05-06 23:05:00,59.3,53.5,30.04,ENE,76,1.0,4.0,81,0.00,CLR,OVC,0.02,WeatherDisplay:10.37,2013-05-07 03:05:00,
2013-05-06 23:10:00,59.4,53.6,30.04,NE,46,0.0,1.0,81,0.00,CLR,OVC,0.02,WeatherDisplay:10.37,2013-05-07 03:10:00,
2013-05-06 23:20:00,59.5,53.6,30.04,NE,53,1.0,3.0,81,0.00,CLR,OVC,0.02,WeatherDisplay:10.37,2013-05-07 03:20:00,
2013-05-06 23:30:00,59.5,53.3,30.04,NE,38,0.0,0.0,80,0.00,CLR,OVC,0.02,WeatherDisplay:10.37,2013-05-07 03:30:00,
2013-05-06 23:35:00,59.5,53.3,30.04,ENE,72,1.0,4.0,80,0.00,CLR,OVC,0.02,WeatherDisplay:10.37,2013-05-07 03:35:00,
2013-05-06 23:40:00,59.5,53.4,30.04,NE,55,0.0,3.0,80,0.00,CLR,OVC,0.02,WeatherDisplay:10.37,2013-05-07 03:40:00,
2013-05-06 23:50:00,59.5,53.6,30.04,NE,38,0.0,2.0,81,0.00,CLR,OVC,0.02,WeatherDisplay:10.37,2013-05-07 03:50:00,